Regional Weather Roundup
Issued by NWS

Home | Current Version | Previous Version | Text Only | Print | Product List | Glossary Off
Versions: 1 2 3 4 5 6 7 8 9 10 11 12 13 14 15 16 17 18 19 20 21 22 23 24 25 26 27 28 29 30 31 32 33 34 35 36 37 38 39 40 41 42 43 44 45 46 47 48 49 50

000
ASUS45 KCYS 160710
RWRWY

WYOMING REGIONAL WEATHER ROUNDUP
NATIONAL WEATHER SERVICE CHEYENNE WY
100 AM MDT TUE SEP 16 2014

NOTE:  "FAIR" INDICATES FEW OR NO CLOUDS BELOW 12,000 FEET
WITH NO SIGNIFICANT WEATHER AND/OR OBSTRUCTIONS TO VISIBILITY.

WYZ001-160800-
YELLOWSTONE NATIONAL PARK

CITY           SKY/WX    TMP DP  RH WIND       PRES   REMARKS
LK YELLOWSTONE   N/A     35  29  78 CALM      30.36S
W YELLOWSTONE  NOT AVBL

$$
WYZ002>013-054>058-071-098>099-160800-
NORTHERN WYOMING

CITY           SKY/WX    TMP DP  RH WIND       PRES   REMARKS
JACKSON        CLEAR     39  30  70 N6        30.27S WCI  35
CODY           CLEAR     55  39  54 SW7       30.16S
GREYBULL       CLEAR     52  43  71 CALM      30.09S
WORLAND        CLEAR     53  45  74 SE7       30.11S
SHERIDAN       CLEAR     47  41  80 CALM      30.09F
BUFFALO        CLEAR     56  33  42 CALM      30.14S
GILLETTE       CLEAR     51  44  77 VRB3      30.11S
HULETT         FAIR      55  43  62 MISG      30.11
NEWCASTLE      FAIR      57  41  54 E7        30.12

$$
WYZ014>020-022>026-101>103-160800-
CENTRAL WYOMING

CITY           SKY/WX    TMP DP  RH WIND       PRES   REMARKS
BIG PINEY      CLEAR     44  26  49 E5        30.32S
PINEDALE       SUNNY     37  30  75 W5        30.34R WCI  34
DUBOIS         FAIR      46  27  46 W8        30.30S
LANDER         CLEAR     51  37  58 S5        30.18S
RIVERTON       CLEAR     56  38  50 W10       30.19R
CASPER         PTCLDY    49  38  65 CALM      30.15F
DOUGLAS        MOCLDY    53  43  68 SE6       30.13S

$$
WYZ021-027>030-104>119-160800-
SOUTHERN WYOMING

CITY           SKY/WX    TMP DP  RH WIND       PRES   REMARKS
EVANSTON       CLEAR     56  32  40 SE8       30.32S
KEMMERER       SUNNY     52  30  43 NW9       30.33S
FORT BRIDGER   FAIR      56  31  38 S8        30.34S
ROCK SPRINGS   CLEAR     59  33  37 SW7       30.29S
DIXON          FAIR      46  39  76 CALM      30.31S
RAWLINS        CLEAR     60  33  36 SW12      30.27R
SARATOGA       FAIR      52  36  54 SE8       30.30S
LARAMIE        PTCLDY    46  39  76 S6        30.29F
CHEYENNE       PTCLDY    52  46  80 W9        30.23F
TORRINGTON     PTCLDY    54  48  80 E13       30.11F
PINE BLUFFS    FAIR      48  46  93 W6        30.20F

$$



USA.gov is the U.S. government's official web portal to all federal, state and local government web resources and services.